Theta_e
304 304 304 304 305 306 307 308 309 309 310 310 310 311 312 313 315 319 323 325 327 329 332 333 334 333 332 331 332 332 333 334 335 334 336 337 335 336 336 332 328 327 330 335 336 336 337 337 336 335 335 335 334 334 334 333 333 333 334 335 334 334 334
304 303 303 303 304 305 306 307 308 309 309 309 310 310 310 311 313 314 316 320 323 325 327 329 332 333 333 332 331 331 332 333 333 334 336 337 335 335 337 337 335 331 330 334 336 336 337 337 337 336 336 336 335 335 335 334 334 334 334 335 335 334 334
304 303 302 302 303 303 304 305 306 307 308 308 309 309 310 310 311 312 314 316 318 321 324 326 328 330 332 332 331 331 332 332 333 334 334 335 335 335 335 336 337 336 334 335 335 336 336 337 337 336 336 336 337 337 336 336 336 335 335 335 335 335 334
303 302 301 302 302 303 303 304 304 305 306 307 308 308 309 310 310 310 312 314 315 316 319 323 326 327 329 330 331 332 332 332 333 333 331 332 334 334 334 335 335 337 338 336 336 336 337 337 336 336 336 335 335 336 337 337 337 336 336 335 335 336 336
303 301 300 301 302 302 303 304 304 304 305 305 307 308 308 309 310 310 310 311 314 315 316 319 323 327 328 327 328 330 332 332 332 332 331 332 333 333 333 333 333 335 337 337 337 337 337 337 337 336 336 336 336 335 335 336 336 336 335 335 334 335 336
302 301 300 301 302 303 304 304 304 305 306 306 307 308 309 309 310 310 310 310 312 313 313 315 319 323 326 328 328 327 328 331 331 331 332 332 333 333 333 333 332 332 335 337 338 337 337 338 337 337 336 337 337 336 335 335 336 336 335 334 334 335 335
302 301 301 302 301 302 304 304 305 306 307 308 309 309 310 310 310 310 310 310 310 310 311 312 315 317 320 324 327 327 327 328 330 332 334 333 333 334 333 333 332 332 333 335 337 337 338 338 338 338 337 337 337 337 336 335 335 335 335 334 333 334 335
301 301 302 303 302 302 303 304 305 307 309 310 310 310 311 311 311 311 311 311 310 310 310 310 312 315 316 318 320 324 326 327 327 329 332 333 333 333 333 332 332 332 332 333 335 337 337 338 338 338 338 337 338 338 337 336 335 335 335 334 333 334 334
301 301 302 303 302 303 305 306 307 308 309 310 310 311 312 313 313 313 312 311 311 312 311 310 311 313 316 317 317 320 323 325 325 327 330 332 332 333 333 333 333 332 332 333 335 336 336 337 338 338 338 338 338 338 337 337 336 337 336 334 333 334 333
301 301 302 302 302 305 308 310 310 310 310 311 311 312 313 313 313 313 313 313 313 313 312 311 310 312 314 317 318 319 320 322 324 325 328 330 331 332 333 333 333 333 332 333 334 334 335 337 338 337 338 338 338 338 337 337 336 337 337 335 334 334 334
304 303 303 303 304 307 309 310 310 311 311 311 312 312 312 312 313 313 313 313 313 313 313 312 311 312 314 317 320 320 319 319 322 325 327 328 329 330 332 332 333 333 333 333 334 334 334 336 337 337 337 337 337 337 338 338 337 336 337 337 335 334 334
306 306 305 305 306 308 309 309 310 310 310 311 311 312 312 312 312 312 312 313 313 313 313 313 312 312 313 316 320 321 319 317 320 323 325 326 326 327 329 331 331 332 333 332 332 333 334 334 334 336 338 337 336 336 337 338 337 336 336 338 337 336 335
305 306 307 307 308 308 309 309 309 309 310 310 311 311 311 311 312 312 312 312 312 313 313 313 313 313 313 315 318 321 321 319 319 322 323 324 326 326 328 329 330 331 332 332 331 333 333 332 333 336 337 337 337 336 336 337 337 336 335 335 336 337 337
306 307 308 308 309 309 309 309 308 308 309 309 308 308 309 309 311 311 312 312 312 312 312 313 313 313 314 315 316 319 322 322 321 321 323 324 325 327 328 329 329 329 331 332 332 332 332 332 333 334 335 336 336 335 335 337 337 336 335 334 334 335 336
306 307 308 308 309 309 309 309 308 308 307 306 306 306 306 307 308 310 311 312 312 312 312 313 314 314 314 315 316 317 320 322 322 322 324 324 324 326 327 327 328 329 329 331 332 332 333 333 333 333 333 334 335 334 334 336 337 336 336 334 334 334 335
307 308 308 309 309 308 307 306 306 305 305 304 304 305 305 306 307 308 309 311 312 312 312 312 313 314 315 315 316 317 319 321 322 322 323 324 324 325 326 326 327 328 329 330 331 331 332 333 333 333 334 334 334 333 334 336 337 337 336 335 335 335 335
308 308 307 307 306 305 304 304 304 304 304 304 304 304 305 306 307 308 308 310 311 312 312 312 312 313 313 315 316 317 318 319 321 322 322 324 325 326 327 328 327 328 328 328 330 330 330 332 333 333 334 334 333 333 333 335 337 336 335 335 335 335 335
308 306 304 304 304 303 303 303 303 304 304 304 304 305 305 306 307 307 307 308 309 311 311 311 311 312 312 313 315 317 318 319 321 322 323 324 325 326 327 328 328 327 327 327 328 329 329 331 332 332 333 334 333 334 334 335 336 337 337 336 335 335 335
306 304 304 304 304 304 304 304 304 304 305 305 305 305 306 306 306 306 307 307 307 309 310 310 311 311 312 312 314 316 317 319 319 320 321 324 325 326 326 327 327 327 327 327 328 328 328 329 330 331 333 334 334 335 335 334 335 336 336 335 335 335 336
304 304 304 304 304 304 304 304 304 305 305 306 306 306 306 306 306 306 306 306 307 307 308 309 310 310 311 312 312 314 316 317 318 318 320 323 324 325 325 326 326 327 327 327 328 327 327 328 328 329 332 333 334 336 335 333 334 335 335 335 335 335 335
304 305 304 304 304 303 303 304 305 305 306 306 306 306 306 306 305 305 306 306 306 306 307 308 309 309 310 311 312 313 314 316 317 318 319 322 324 324 325 326 326 326 327 327 327 328 327 327 327 327 328 330 331 334 336 335 333 333 333 334 334 334 334
305 305 304 303 303 303 304 305 306 305 305 305 305 305 305 305 305 305 305 305 305 306 306 306 308 309 310 311 312 313 313 314 316 317 318 320 322 324 325 326 326 325 326 326 327 328 328 327 328 328 328 329 330 331 333 335 334 332 332 332 333 333 333
305 304 303 303 303 304 305 305 305 305 305 304 304 304 304 304 304 304 304 304 304 305 305 306 307 307 308 309 309 311 312 313 315 316 317 319 321 323 324 326 326 325 324 324 324 326 327 326 326 327 327 328 329 330 331 334 334 333 332 332 332 332 332
305 304 303 304 304 305 305 305 304 304 304 304 303 303 303 303 303 303 303 303 303 304 305 305 306 306 306 307 307 308 309 312 313 315 317 318 321 323 324 325 326 325 325 325 324 324 325 325 325 324 323 324 325 328 330 332 332 332 332 332 331 331 332
305 304 304 304 304 304 304 303 303 302 302 302 302 302 302 302 302 302 302 303 303 303 304 304 304 304 305 305 306 306 307 309 312 314 315 317 319 321 323 324 325 325 325 326 326 326 326 326 325 324 324 323 323 324 325 327 329 331 332 333 333 334 334
304 304 304 304 303 303 303 302 301 301 301 300 300 301 301 301 301 301 301 302 302 302 303 303 303 304 304 305 305 305 306 308 310 312 315 316 317 319 321 323 324 324 324 324 324 324 325 326 326 325 324 325 325 325 326 325 326 327 329 330 331 332 332
304 304 303 303 303 302 302 301 301 300 300 300 300 300 300 300 300 300 300 300 301 302 302 302 302 304 305 305 305 305 305 307 308 311 314 315 316 317 319 320 321 322 322 323 322 322 323 325 327 328 327 326 326 327 328 328 327 326 326 326 327 328 328
304 303 303 302 302 302 301 301 300 300 299 299 299 299 299 299 299 299 299 299 300 300 301 301 301 303 304 305 305 305 305 306 308 309 312 314 315 316 317 318 320 321 322 323 322 322 321 321 323 326 328 328 328 328 327 328 328 327 327 327 327 328 328
304 303 303 302 302 302 301 301 300 299 299 299 298 298 298 298 298 298 298 298 299 299 299 299 299 300 302 303 304 304 305 305 307 308 310 313 314 315 316 317 318 319 321 322 321 320 320 319 319 320 322 325 326 326 325 326 327 327 327 327 327 328 328
303 303 303 302 302 301 301 300 300 299 299 298 297 297 297 297 297 297 297 297 297 298 298 298 298 299 301 301 301 302 303 303 305 307 308 310 313 314 315 316 316 318 319 320 320 319 318 317 315 316 319 322 323 324 324 323 324 324 325 326 327 327 327
303 302 302 302 302 301 300 300 299 299 298 297 297 296 296 296 296 296 296 296 296 297 297 297 297 298 299 299 300 300 301 301 302 303 305 308 310 312 314 315 315 316 317 318 319 318 318 316 314 316 320 322 323 323 323 322 323 324 324 325 325 326 327
302 302 302 302 301 301 300 299 299 298 297 297 296 296 296 296 295 295 295 295 295 296 296 297 296 296 297 298 299 299 299 300 300 301 303 305 308 310 311 313 314 315 316 317 317 317 317 316 314 315 320 323 323 323 323 323 324 325 326 325 325 325 326
302 302 302 301 301 300 300 299 299 298 297 297 296 296 295 295 295 295 295 295 295 295 295 296 295 295 296 297 298 298 299 300 301 301 302 303 305 308 310 312 313 314 315 316 316 316 316 315 314 313 316 321 323 322 321 322 323 323 325 326 326 326 326
302 302 301 300 300 300 299 299 299 298 297 297 296 295 295 295 295 295 295 295 295 295 295 294 294 295 296 298 299 299 299 300 301 302 301 302 304 306 309 311 313 315 316 317 318 318 317 315 315 313 313 316 319 320 319 318 318 319 322 325 327 327 327
301 301 301 300 300 300 299 299 298 298 297 297 296 295 295 295 295 294 294 295 295 295 294 294 294 296 297 298 299 300 301 302 302 302 303 303 304 305 307 309 311 313 316 317 317 317 316 314 313 313 312 313 316 318 317 315 316 319 321 324 326 328 329
301 301 301 300 299 299 299 298 298 298 297 296 296 296 295 295 295 295 295 296 295 295 295 295 296 297 298 299 300 301 302 303 303 304 304 306 306 306 306 306 308 310 312 313 314 314 313 312 311 311 311 312 314 315 315 316 318 320 321 322 324 327 328
302 302 301 300 299 299 299 298 298 298 297 297 296 296 295 295 295 296 296 297 296 296 296 297 297 298 299 300 302 302 303 303 303 305 307 308 307 306 306 307 308 309 310 311 311 312 312 313 313 312 312 312 313 314 315 317 319 321 321 323 324 324 325
Wind_Speed
11 10 11 13 14 15 17 18 19 20 19 19 21 22 24 24 24 23 22 22 24 25 26 27 28 31 33 33 31 28 27 29 29 25 25 24 22 21 21 23 28 30 27 23 19 16 13 12 13 14 15 16 17 18 19 19 19 20 21 21 20 20 21
15 12 11 12 13 15 16 18 19 20 20 20 20 20 22 24 26 26 24 23 22 23 25 27 27 29 30 31 32 32 30 31 30 26 24 25 24 23 22 22 23 26 29 27 25 24 21 18 16 15 15 16 17 18 20 20 20 20 20 22 22 20 20
17 14 12 11 12 13 15 16 18 19 21 21 21 20 21 22 24 27 26 26 24 23 24 25 26 27 29 31 32 32 31 31 31 29 26 25 26 26 24 22 20 21 25 26 26 26 25 22 20 18 17 17 17 19 20 20 20 20 21 22 22 22 21
18 15 13 12 12 12 13 14 16 17 19 22 22 22 21 21 22 24 26 28 27 26 26 25 24 25 27 30 31 32 32 32 31 32 31 31 30 31 30 26 22 21 22 24 25 25 24 23 22 21 20 19 19 19 19 19 19 19 20 21 22 22 23
19 17 14 12 12 12 13 14 15 16 17 20 22 23 23 23 22 22 24 26 27 28 28 28 25 23 24 28 30 31 32 32 32 33 34 36 34 34 35 32 28 26 24 24 23 22 22 22 22 22 20 19 20 20 18 18 19 19 20 20 21 22 23
21 18 16 14 13 13 13 14 15 16 17 18 20 22 24 24 24 23 23 25 27 29 30 30 28 26 25 26 27 29 31 33 34 34 35 36 36 36 37 35 33 31 28 26 24 23 22 22 22 22 20 18 18 19 17 17 18 19 19 20 21 21 22
21 19 17 15 14 14 13 14 15 16 18 19 19 21 22 24 26 26 25 25 26 29 31 31 31 32 31 29 28 28 29 31 34 35 35 35 35 36 37 37 36 35 33 30 27 25 23 22 22 23 21 19 18 18 18 18 18 19 19 19 20 21 21
21 19 17 16 15 15 14 15 16 16 18 19 20 21 22 22 23 25 26 27 26 27 29 31 32 33 34 32 31 30 30 30 32 35 36 36 36 36 37 37 38 38 39 35 30 28 27 24 23 22 22 20 18 19 19 19 20 20 20 18 18 20 20
23 20 18 17 16 15 14 15 16 17 18 19 21 22 20 18 18 20 22 25 24 23 25 29 32 33 33 33 32 32 31 30 31 33 35 37 38 38 37 37 37 39 40 38 34 30 27 26 24 22 21 21 19 19 19 19 20 21 20 19 18 19 20
23 21 19 18 18 15 13 13 14 15 16 17 19 19 16 15 16 17 18 20 19 19 21 26 29 32 33 33 32 32 32 32 31 31 32 36 39 40 39 39 38 38 39 39 38 33 27 25 25 23 22 21 21 21 20 20 20 19 19 19 18 18 17
20 20 19 19 18 14 12 12 13 13 14 14 15 15 15 15 16 17 18 18 17 18 21 23 26 29 31 31 31 32 33 32 32 31 32 34 37 37 39 39 39 38 39 40 39 36 31 27 26 24 23 22 21 23 22 21 21 20 18 18 18 17 16
17 16 17 17 16 14 13 13 13 14 14 14 15 15 16 17 17 18 19 19 18 19 20 22 24 26 28 29 29 31 33 34 33 32 33 35 35 35 35 38 39 39 39 39 38 35 34 34 30 27 25 24 23 24 23 23 24 23 20 19 19 18 17
17 15 14 14 14 14 15 15 15 16 15 15 16 16 17 18 18 19 21 20 20 20 20 21 23 24 26 28 29 29 30 33 34 34 34 35 35 33 32 33 36 37 37 38 39 38 38 38 34 30 28 26 26 26 25 25 27 27 26 25 23 20 18
17 14 14 14 14 13 14 15 15 17 18 19 21 21 21 20 19 20 21 21 21 20 20 20 21 23 25 26 27 28 29 31 34 34 34 35 34 32 31 32 33 34 34 35 38 38 39 40 39 37 34 31 32 32 29 28 30 30 29 31 30 27 23
15 14 14 15 14 13 14 15 16 18 20 22 23 25 24 23 22 21 21 22 21 21 21 21 21 22 24 25 26 27 28 30 32 34 34 35 35 33 32 32 31 31 32 34 36 36 37 39 40 40 38 36 38 37 32 31 32 31 30 31 31 28 26
14 14 14 14 15 15 17 18 19 20 21 22 24 25 25 24 22 22 23 23 21 20 21 22 22 23 23 25 26 27 28 29 32 34 35 36 35 34 34 34 32 30 30 32 34 35 36 37 37 38 38 39 41 40 35 33 33 31 30 30 28 26 24
13 14 15 15 17 19 20 20 20 21 22 23 24 25 24 21 19 21 22 22 21 21 21 21 22 23 23 24 25 27 28 29 31 34 36 36 35 34 34 34 33 31 30 31 32 34 35 35 34 35 37 38 40 40 37 34 32 31 31 30 29 26 24
14 15 17 17 18 19 20 20 21 22 23 24 24 24 22 19 18 19 21 22 22 22 22 22 22 23 24 24 24 25 26 29 31 33 35 35 35 35 34 34 34 33 32 31 31 33 34 34 34 36 38 36 34 36 37 33 29 29 29 29 28 25 23
15 17 18 18 20 21 22 23 23 23 23 23 23 22 20 19 20 21 21 22 23 23 23 22 23 23 23 23 24 24 24 27 32 35 36 35 35 35 35 35 35 34 33 32 31 32 32 32 34 36 37 36 33 34 36 34 30 29 29 29 29 27 24
17 19 21 22 24 25 26 25 24 23 22 21 21 21 20 20 21 21 21 21 22 23 23 22 23 23 22 23 24 25 26 27 30 33 35 36 36 37 37 36 35 34 34 33 31 31 30 30 32 35 37 36 33 31 34 35 33 30 28 30 32 31 28
20 22 24 25 26 27 26 24 21 20 20 19 19 19 20 21 21 20 20 20 20 21 22 22 22 22 22 22 22 25 29 30 30 32 35 37 36 36 37 37 36 35 34 33 32 32 31 30 30 33 36 37 34 30 29 32 35 34 32 33 33 32 32
22 24 25 26 27 26 23 20 18 18 19 19 18 18 19 20 20 20 20 20 20 20 21 23 22 20 21 22 22 26 31 32 31 32 35 38 37 35 35 35 35 35 34 34 32 31 31 31 30 31 33 34 35 35 30 28 32 36 37 37 35 33 33
23 25 26 27 27 25 21 18 19 19 19 19 18 18 18 18 19 19 19 20 20 19 19 20 20 20 23 25 27 30 32 32 32 32 32 35 37 37 33 30 32 35 34 35 35 33 33 32 31 32 32 32 33 34 30 28 29 31 34 38 38 37 36
23 25 26 27 27 24 19 18 19 19 18 18 18 18 18 18 18 19 19 20 20 20 19 18 18 21 24 27 30 31 32 33 34 33 31 30 31 33 30 26 27 30 30 31 33 34 34 35 34 34 34 35 35 34 32 32 31 29 30 34 36 37 39
23 23 25 26 27 24 19 17 18 17 18 17 18 18 18 17 18 18 19 20 20 20 20 20 20 22 24 26 28 30 31 33 34 34 33 31 28 28 27 24 23 26 27 28 29 29 31 34 36 36 36 36 37 36 36 37 36 32 31 32 32 34 38
21 22 24 26 26 22 17 17 17 16 17 16 17 18 18 17 18 19 20 20 19 18 19 20 21 23 24 25 27 29 31 32 34 35 34 33 31 28 27 25 24 26 27 28 29 30 29 29 30 32 34 35 35 35 35 37 38 38 38 38 38 38 38
20 21 23 24 23 19 17 17 17 16 16 16 17 18 17 18 18 19 20 20 19 18 17 19 22 24 24 25 27 30 31 32 34 36 35 34 33 31 29 29 28 28 27 26 28 30 30 28 26 25 28 30 32 34 33 33 35 36 38 40 41 41 40
19 21 22 22 20 18 17 18 17 17 16 16 17 17 17 18 18 18 18 19 19 19 17 19 24 25 24 25 26 29 32 33 34 36 37 35 34 32 31 31 32 31 29 27 27 29 30 29 28 27 27 27 29 31 32 33 32 32 33 35 37 38 38
19 20 20 19 19 18 17 18 17 17 16 17 17 16 16 17 17 18 18 18 19 19 18 19 24 26 25 24 25 27 29 30 33 36 37 36 35 34 32 31 31 31 30 29 28 29 30 30 31 32 33 32 32 33 33 33 32 31 33 34 34 36 37
17 18 18 18 18 17 17 18 17 17 17 17 16 16 16 16 16 17 18 18 18 19 19 19 21 23 23 23 23 25 25 26 28 32 35 37 36 35 35 34 32 30 30 29 28 28 29 29 30 31 32 33 35 37 37 35 34 33 34 35 35 36 36
14 15 16 17 17 16 17 18 17 17 17 17 16 16 16 16 16 16 17 18 18 19 20 19 19 21 22 22 23 23 23 24 24 25 27 31 34 35 36 37 36 34 32 31 30 30 29 30 30 28 27 28 30 33 35 36 35 34 34 35 36 36 36
12 13 14 15 15 15 17 17 17 17 17 17 16 16 16 16 17 16 16 16 18 19 19 19 19 20 22 23 24 24 24 25 26 24 23 23 26 30 33 34 36 38 37 35 33 33 32 33 34 31 27 26 26 27 28 29 30 32 33 34 35 35 36
12 12 13 13 13 15 16 16 17 18 17 16 16 16 16 16 16 16 16 16 17 18 20 20 20 21 22 23 22 22 23 25 27 28 26 23 22 23 25 28 30 33 34 34 33 34 34 35 36 36 32 30 29 27 25 24 25 28 32 33 34 35 35
11 10 11 12 13 14 15 16 17 17 18 18 17 17 17 16 16 16 16 17 18 18 18 19 19 20 21 21 19 19 21 23 24 26 27 26 24 22 21 22 22 22 24 26 27 29 30 30 31 33 34 34 33 31 29 28 27 28 30 31 32 33 35
12 11 11 12 13 13 14 15 16 17 19 20 20 19 17 16 17 17 17 18 20 19 19 19 19 19 18 17 16 16 18 21 22 23 25 25 26 25 23 21 20 21 24 27 27 29 31 30 30 32 35 36 36 34 33 32 32 31 31 29 28 29 31
11 12 13 13 13 12 13 14 15 17 19 21 22 21 18 17 18 20 20 21 21 21 21 19 17 16 15 13 13 13 14 16 18 21 23 22 21 22 21 20 22 26 29 31 32 33 34 33 34 35 35 36 36 35 35 34 34 34 33 32 30 30 32
9 11 13 14 13 12 13 13 14 16 20 22 24 23 20 20 22 25 26 26 26 25 24 21 18 17 16 13 10 9 9 10 12 16 18 18 17 18 19 20 23 26 28 29 31 32 32 33 35 36 36 36 35 35 35 35 34 33 34 34 34 36 36
Wind_Direction
347 324 307 299 294 292 290 290 292 292 291 286 280 274 269 266 263 260 262 267 269 265 261 258 255 253 251 249 251 252 248 244 239 236 237 233 227 233 235 231 231 232 234 235 234 237 236 227 219 219 220 219 222 224 225 228 229 231 231 231 234 236 241
353 340 320 303 295 293 291 291 291 292 293 293 291 286 278 272 269 265 261 261 265 269 268 264 261 258 254 252 252 251 250 249 243 239 241 240 233 232 235 236 235 233 233 236 238 238 238 237 232 228 224 219 222 223 223 227 230 233 233 235 238 238 237
353 346 334 317 303 296 293 293 293 293 294 294 293 291 287 281 274 270 267 262 258 260 266 267 264 262 258 255 255 252 250 251 249 244 245 247 244 238 234 235 236 234 232 232 235 236 234 235 235 235 232 226 225 224 226 232 233 233 234 235 239 240 239
351 345 340 330 317 308 301 297 296 295 294 294 294 292 291 288 282 275 270 266 262 256 257 262 264 266 264 261 258 256 254 252 251 249 249 250 250 246 242 237 236 238 236 231 231 231 230 231 232 234 236 235 236 235 234 235 234 235 237 237 238 240 241
348 344 339 333 326 320 314 309 305 301 298 296 296 296 294 293 289 282 274 268 265 259 252 252 256 260 264 264 262 258 256 253 251 250 249 248 248 248 247 242 237 238 241 238 233 230 230 231 230 232 234 237 240 242 238 236 236 237 238 239 239 240 241
345 341 337 334 329 325 321 318 316 311 307 303 299 298 298 298 296 292 283 271 265 262 256 251 250 252 256 262 265 261 257 255 254 252 249 248 247 247 248 246 242 240 241 241 236 232 232 232 232 233 234 235 237 241 241 236 236 238 238 239 241 241 240
343 338 333 330 325 323 320 317 317 315 312 309 306 303 301 301 302 299 292 282 271 265 262 256 251 250 252 255 262 263 259 255 254 252 250 249 247 245 246 247 244 241 240 239 237 233 230 230 231 232 233 234 236 240 241 239 238 240 241 241 240 241 242
340 335 330 325 322 321 317 314 314 314 313 310 309 308 306 304 302 299 296 292 282 269 263 259 254 251 251 253 256 260 261 259 257 255 252 250 247 244 244 246 246 243 239 237 236 233 231 230 230 231 233 234 237 240 239 238 240 241 242 242 240 241 242
338 333 327 321 318 316 312 312 313 313 314 312 309 307 303 300 299 297 297 296 289 275 262 257 255 253 251 252 252 254 258 260 261 261 257 253 250 247 245 245 246 246 242 238 237 235 232 231 231 232 234 234 237 241 241 239 239 242 241 241 242 243 242
336 332 325 319 317 313 306 306 306 308 309 308 308 305 298 296 297 297 297 296 292 283 270 259 255 254 253 252 251 250 252 255 258 260 258 255 253 250 248 246 245 246 245 242 241 238 234 233 232 233 234 234 235 241 246 246 242 241 241 239 241 243 240
332 327 320 317 315 307 300 301 300 301 303 302 302 300 295 293 293 293 295 295 292 287 281 271 259 255 254 253 252 250 248 250 253 255 256 257 255 252 251 249 247 246 244 245 246 244 238 234 234 234 234 233 234 237 244 251 249 245 243 241 239 239 240
324 318 314 314 310 302 299 298 296 297 298 300 299 296 293 291 289 291 292 293 293 289 284 280 270 260 256 254 254 252 248 247 250 252 255 258 258 256 253 250 249 248 246 247 247 243 239 237 235 235 236 235 234 235 239 248 253 250 245 242 239 239 242
320 315 311 309 304 300 298 294 295 298 298 299 300 297 294 292 288 289 290 289 291 290 284 281 276 268 261 256 255 254 250 247 248 251 253 256 258 259 256 253 251 248 247 247 245 243 242 240 235 232 235 236 235 235 236 242 249 250 247 246 243 241 242
319 315 312 308 302 299 296 293 296 299 301 304 307 305 301 295 288 285 287 287 287 288 285 280 276 272 267 261 256 255 253 250 248 248 251 253 255 256 257 256 254 250 248 248 247 245 243 241 238 236 238 239 238 239 237 237 244 248 248 248 247 245 243
319 317 314 309 304 299 296 297 299 301 305 310 311 308 305 300 292 284 282 282 282 284 284 281 277 272 268 265 260 256 253 251 249 247 249 250 250 252 255 257 257 256 253 251 250 247 242 242 244 242 240 240 240 241 238 235 241 246 246 246 247 247 245
319 318 315 309 307 309 310 311 311 309 311 313 311 308 304 299 293 286 280 278 277 278 280 280 278 273 269 267 264 259 254 253 250 247 248 249 250 251 252 253 254 255 254 253 253 249 244 245 246 242 241 242 242 242 239 235 237 240 243 245 242 243 245
318 320 323 321 319 322 321 320 318 317 317 316 313 309 303 297 292 287 282 277 274 274 276 278 278 275 270 266 265 262 258 255 253 250 248 248 249 249 249 249 250 250 251 253 253 250 246 245 243 240 241 243 242 241 236 231 233 237 242 245 242 240 242
322 328 334 333 330 329 326 323 321 320 318 316 312 307 303 298 294 290 286 280 275 273 273 274 276 276 273 268 265 264 261 257 256 252 250 249 248 248 248 248 248 248 250 251 251 251 251 247 241 238 239 239 238 235 231 227 230 235 237 241 243 240 237
332 338 340 338 335 333 330 327 323 319 314 309 306 304 301 298 295 292 289 284 278 274 271 272 274 275 275 272 268 266 264 261 256 251 250 251 249 247 247 248 248 248 247 248 248 251 253 249 242 238 238 239 236 235 235 233 232 234 237 243 246 244 239
341 342 340 337 335 332 330 326 320 313 306 301 300 300 298 297 296 293 290 287 283 278 274 272 271 272 273 272 269 266 262 259 257 251 248 248 248 248 247 247 247 247 246 246 247 249 252 251 245 240 239 241 239 239 243 242 236 236 240 242 243 245 245
343 341 338 336 333 330 326 320 312 306 301 298 296 294 294 294 295 294 291 288 285 282 278 273 271 270 272 272 268 264 260 260 262 259 252 246 244 246 247 246 246 246 246 246 246 248 250 251 250 246 244 244 243 242 245 244 242 241 241 241 244 247 249
341 339 337 335 331 327 321 314 308 304 301 298 295 293 292 292 293 293 292 290 287 284 279 274 270 267 267 267 264 263 264 265 267 267 261 251 246 246 246 244 244 245 245 245 245 245 247 248 248 249 249 249 248 247 245 245 249 248 244 245 246 246 248
339 338 336 335 331 325 318 310 306 303 299 296 294 293 290 289 290 291 291 290 288 285 281 276 270 261 259 262 265 267 269 267 266 268 266 257 250 249 246 242 244 246 244 245 246 245 246 245 245 247 249 251 252 250 246 244 248 249 247 248 248 245 245
338 336 336 335 329 322 316 309 305 301 298 295 293 292 289 287 289 291 290 289 287 285 283 277 270 265 264 266 269 271 270 267 265 266 266 260 253 248 244 241 244 245 245 247 248 247 247 246 245 246 247 248 251 250 246 245 247 248 247 248 248 246 244
337 335 335 334 327 321 318 313 308 304 299 296 294 293 290 287 288 291 291 289 287 285 283 280 276 274 272 271 271 271 269 266 264 262 261 262 259 250 245 247 250 248 246 248 248 249 250 249 249 249 248 249 251 251 249 249 250 250 249 247 245 244 244
335 334 335 333 327 325 324 320 315 312 306 302 301 298 293 289 290 292 292 290 288 286 285 284 280 277 275 272 269 268 266 263 262 260 258 260 262 256 249 250 253 251 249 250 251 252 253 254 255 254 254 252 252 252 250 248 248 248 248 249 250 250 250
334 336 337 334 329 327 326 323 320 317 312 308 305 302 297 294 293 293 293 292 289 288 287 284 280 280 282 278 273 269 266 261 259 259 258 257 260 260 256 253 253 255 255 254 252 252 253 256 260 262 262 259 256 254 252 251 250 248 246 248 250 252 254
337 339 338 335 333 329 326 324 322 319 314 311 308 305 301 298 297 295 294 293 291 290 288 284 283 286 287 283 280 277 272 265 259 256 256 255 256 259 260 258 256 256 257 258 257 257 257 259 261 261 261 261 260 259 257 255 254 253 251 252 252 252 254
338 340 339 338 335 330 328 326 324 322 318 313 310 306 303 302 300 298 296 295 293 291 289 286 285 288 290 288 287 285 280 274 266 258 254 252 253 255 257 258 258 257 258 259 261 263 264 265 266 265 262 259 260 262 262 261 260 259 258 258 258 257 258
337 340 341 338 332 330 333 332 329 326 322 317 314 312 310 307 304 302 300 298 296 294 293 291 288 290 293 295 293 289 284 280 274 266 258 252 250 251 253 255 256 256 257 259 262 265 267 268 271 272 269 264 261 260 261 263 264 264 262 261 261 262 263
334 335 335 332 329 332 337 337 334 330 325 321 319 316 315 312 308 305 303 301 300 299 299 298 296 294 294 294 293 289 284 280 277 274 267 257 250 249 251 253 254 255 256 259 262 264 265 269 274 276 273 270 265 262 261 262 264 265 264 263 263 264 264
328 329 329 328 331 336 339 338 336 332 328 324 321 319 318 316 313 310 308 306 305 304 302 302 301 298 295 293 291 287 283 279 274 270 270 266 258 253 251 253 255 256 258 262 265 265 265 268 271 272 272 270 269 267 267 266 265 264 264 264 265 265 264
323 326 328 330 335 338 339 339 337 335 333 328 324 322 322 320 319 318 314 309 307 305 305 306 306 302 297 294 292 285 280 279 276 271 270 268 264 259 256 255 257 260 264 268 269 268 268 268 269 269 268 268 269 270 273 274 270 267 266 266 264 263 263
322 325 328 331 334 337 338 338 339 339 339 336 332 330 329 327 326 325 321 318 319 319 317 313 309 304 300 298 294 285 278 278 278 275 272 268 264 260 255 254 256 258 260 263 264 265 265 265 264 263 261 261 263 266 269 271 272 271 271 268 265 263 261
323 326 330 330 331 333 335 338 340 342 343 344 342 339 337 335 331 329 329 332 336 338 332 323 315 312 310 306 298 286 279 278 278 276 274 270 265 262 258 256 256 248 240 243 249 255 258 259 258 256 255 256 259 261 264 266 266 267 267 266 264 262 260
327 329 331 328 327 332 336 338 342 346 347 348 349 347 344 341 339 340 342 345 349 348 343 338 334 333 334 326 309 292 283 282 282 279 278 277 274 273 271 268 263 253 243 241 245 248 253 256 257 256 256 257 258 259 261 262 263 263 263 263 260 257 256
330 335 334 330 328 331 336 339 343 350 353 352 353 355 352 348 351 354 355 356 358 358 356 356 359 1 2 354 332 306 291 290 289 289 289 287 282 277 273 270 268 265 260 257 255 256 258 260 260 260 259 259 259 259 260 262 263 263 263 261 258 255 254